Location: ?????????
(54.7630°N, 39.4991°E)
Time: 06:43:48
(UTC+00:00)

Meteor 1-27 - Pass Details

Date: 14 April 2026
Orbit: 835 x 892 km, 81.3° (Epoch: 13 May)

Event Time Altitude Azimuth Distance (km) Brightness Sun altitude
Exits shadow 22:04:32 61° 218° (SW) 997 4.2 -25.0°
Maximum altitude 22:05:32 78° 285° (WNW) 907 4.2 -24.9°
Drops below altitude 10° 22:11:20 10° 12° (NNE) 2,537 7.8 -24.7°
Sets 22:13:46 0° 14° (NNE) 3,471 8.8 -24.7°
